Flag for Belgium Weather past 2 weeks in Ghent, Belgium

Now
32 °F

Chilly.


Feels Like: 32 °F
Forecast: 32 / 42 °F
Wind: 2 mph from West

Location: Munte

Current Time: Dec 29, 2014 at 7:52:07 AM

Latest Report: Dec 29, 2014 at 7:00 AM


Visibility: 7 mi

Pressure: 30.56 "Hg

Humidity: 91%

Dew point: 30 °F

Location of GhentLocation

Historic Weather in Ghent — Graph

°F

Ghent temperature yesterday

Maximum temperature yesterday: 32 °F (at 12:00 AM)
Minimum temperature yesterday: 25 °F (at 8:00 AM)
Average temperature yesterday: 28 °F

Past Weeks' High & Low Weather Summary

 TemperatureHumidityPressure
High55 °F (Dec 18, 2:00 PM)99% (Dec 16, 7:00 AM)30.61 "Hg (Dec 16, 7:00 AM)
Low25 °F (Dec 28, 8:00 AM)64% (Dec 28, 2:00 PM)29.26 "Hg (Dec 27, 9:00 AM)
Average42 °F88%30.07 "Hg
* Reported Dec 14 6:00 AM — Dec 29 6:00 AM, Ghent, Weather by CustomWeather, © 2014

Note: Actual official high and low records may vary slightly from our data, if they occured in-between our weather recording intervals... More about our weather records

Advertising

Ghent weather history for previous 24 hours

 ConditionsComfort  
Time TempWeatherWind HumidityBarometerVisibility
6:00 AM
Dec 29
33 °FChilly.2 mph87%30.56 "Hg9 mi
5:00 AM31 °FChilly.2 mph84%30.57 "Hg9 mi
4:00 AM32 °FChilly.3 mph79%30.59 "Hg10 mi
3:00 AM31 °FChilly.3 mph81%30.60 "Hg8 mi
2:00 AM29 °FChilly.2 mph87%30.60 "Hg6 mi
1:00 AM28 °FChilly.2 mph90%30.60 "Hg5 mi
12:00 AM27 °FChilly.3 mph91%30.61 "Hg4 mi
11:00 PM
Dec 28
26 °FChilly.2 mph92%30.61 "Hg4 mi
10:00 PM26 °FChilly.N/A93%30.61 "Hg4 mi
9:00 PM26 °FChilly.N/A94%30.60 "Hg4 mi
8:00 PM28 °FChilly.N/A88%30.59 "Hg6 mi
7:00 PM28 °FChilly.N/A87%30.56 "Hg6 mi
6:00 PM28 °FChilly.N/A83%30.53 "Hg10 mi
5:00 PM29 °FChilly.2 mph79%30.50 "Hg10 mi
4:00 PM31 °FChilly.3 mph75%30.47 "Hg12 mi
3:00 PM31 °FChilly.5 mph67%30.44 "Hg22 mi
2:00 PM30 °FChilly.6 mph64%30.43 "Hg16 mi
1:00 PM29 °FChilly.7 mph66%30.40 "Hg19 mi
12:00 PM28 °FChilly.6 mph72%30.38 "Hg25 mi
11:00 AM27 °FChilly.8 mph71%30.34 "Hg22 mi
10:00 AM26 °FChilly.6 mph79%30.29 "Hg16 mi
9:00 AM25 °FChilly.7 mph79%30.23 "Hg19 mi
8:00 AM25 °FChilly.7 mph81%30.18 "Hg19 mi
7:00 AM26 °FChilly.7 mph79%30.11 "Hg22 mi
Weather by CustomWeather, © 2014

See weather overviewHow to use our weather pages